Date String (YYYY-MM-DD hh:mm:ss) UTC,Instrument flags,absolute air pressure of the measurement (hPa),sample flow rate (lpm),inlet stack bypass flow (lpm),air temperature of the measurement (°C),ambient temperature measured by the external sensor (°C),aerosol sample conditioner tube jacket temperature (°C),OPC LED temperature (°C),internal box temperature (°C),relative humidity of the measurement (%),span deviation,mass concentration of particles derived from Lorenz-Mie calculation of OPC scattering (μg/m³),mass concentration of particles derived from Lorenz-Mie calculation of OPC scattering (μg/m³),mass concentration of particles derived from Lorenz-Mie calculation of OPC scattering (μg/m³)
DateTimeUTC,F1_M11,P_M11,Q1_M11,Q2_M11,T1_M11,T2_M11,T3_M11,T4_M11,T5_M11,U1_M11,ZSPAN_M11,X0_M11,X2_M11,X1_M11
2024-02-23 11:00:00,SystemResetWarning,0831.5,5.00,000.00,018.4,017.8,000.0,026.8,020.0,11.4,0000.0,0000.91,0000.43,0000.33
2024-02-23 11:01:00,SystemResetWarning,0831.5,5.00,000.00,018.4,017.8,000.0,026.8,020.0,11.3,0000.0,0000.89,0000.43,0000.33
2024-02-23 11:02:00,SystemResetWarning,0831.5,5.00,000.00,018.4,017.8,000.0,026.8,020.0,11.2,0000.0,0000.82,0000.42,0000.33
2024-02-23 11:03:00,SystemResetWarning,0831.5,4.99,000.00,018.4,017.8,000.0,026.8,020.0,11.5,0000.0,0000.78,0000.42,0000.33
2024-02-23 11:04:00,SystemResetWarning,0831.5,5.00,000.00,018.4,017.8,000.0,026.8,020.0,11.5,0000.0,0000.81,0000.44,0000.33
2024-02-23 11:05:00,SystemResetWarning,0831.5,5.00,000.00,018.4,017.8,000.0,026.8,020.0,11.3,0000.0,0000.78,0000.43,0000.34
2024-02-23 11:06:00,SystemResetWarning,0831.5,5.01,000.00,018.4,017.8,000.0,026.8,020.0,11.3,0000.0,0000.60,0000.39,0000.33
2024-02-23 11:07:00,SystemResetWarning,0831.5,5.00,000.00,018.4,017.8,000.0,026.8,020.0,11.2,0000.0,0000.53,0000.39,0000.34
2024-02-23 11:08:00,SystemResetWarning,0831.5,5.00,000.00,018.4,017.8,000.0,026.8,020.0,11.2,0000.0,0000.56,0000.40,0000.35
2024-02-23 11:09:00,SystemResetWarning,0831.5,5.00,000.00,018.4,017.8,000.0,026.8,020.0,10.9,0000.0,0000.55,0000.40,0000.35
2024-02-23 11:10:00,SystemResetWarning,0831.5,5.00,000.00,018.4,017.8,000.0,026.8,020.0,10.7,0000.0,0000.55,0000.40,0000.35
2024-02-23 11:11:00,SystemResetWarning,0831.6,4.99,000.00,018.4,017.8,000.0,026.8,020.0,11.0,0000.0,0000.55,0000.40,0000.35
2024-02-23 11:12:00,SystemResetWarning,0831.5,4.99,000.00,018.4,017.8,000.0,026.7,020.0,11.0,0000.0,0000.56,0000.40,0000.35
2024-02-23 11:13:00,SystemResetWarning,0831.5,5.01,000.00,018.4,017.8,000.0,026.7,020.0,11.0,0000.0,0000.83,0000.38,0000.35
2024-02-23 11:14:00,SystemResetWarning,0831.5,5.00,000.00,018.4,017.8,000.0,026.7,020.1,11.1,0000.0,0000.84,0000.38,0000.35
2024-02-23 11:15:00,SystemResetWarning,0831.5,4.99,000.00,018.4,017.8,000.0,026.7,020.0,11.2,0000.0,0000.85,0000.38,0000.34
2024-02-23 11:16:00,SystemResetWarning,0831.6,5.00,000.00,018.4,017.8,000.0,026.7,020.0,11.3,0000.0,0000.85,0000.38,0000.34
2024-02-23 11:17:00,SystemResetWarning,0831.5,5.00,000.00,018.4,017.9,000.0,026.7,020.0,11.4,0000.0,0000.86,0000.38,0000.34
2024-02-23 11:18:00,SystemResetWarning,0831.5,5.00,000.00,018.4,017.9,000.0,026.7,020.0,11.4,0000.0,0000.85,0000.38,0000.34
2024-02-23 11:19:00,SystemResetWarning,0831.5,5.00,000.00,018.4,017.8,000.0,026.7,020.0,11.3,0000.0,0000.86,0000.38,0000.34
2024-02-23 11:20:00,SystemResetWarning,0831.5,5.00,000.00,018.4,017.9,000.0,026.7,020.1,11.3,0000.0,0000.87,0000.39,0000.34
2024-02-23 11:21:00,SystemResetWarning,0831.5,5.00,000.00,018.4,017.9,000.0,026.7,020.1,11.5,0000.0,0000.88,0000.39,0000.35
2024-02-23 11:22:00,SystemResetWarning,0831.5,5.00,000.00,018.4,017.9,000.0,026.8,020.1,11.4,0000.0,0000.88,0000.39,0000.34
2024-02-23 11:23:00,SystemResetWarning,0831.5,5.00,000.00,018.4,017.9,000.0,026.8,020.1,11.2,0000.0,0000.90,0000.39,0000.34
2024-02-23 11:24:00,SystemResetWarning,0831.5,5.00,000.00,018.4,017.9,000.0,026.7,020.1,11.2,0000.0,0000.68,0000.40,0000.35
2024-02-23 11:25:00,SystemResetWarning,0831.6,5.00,000.00,018.4,017.9,000.0,026.7,020.1,11.2,0000.0,0000.61,0000.40,0000.35
2024-02-23 11:26:00,SystemResetWarning,0831.6,5.00,000.00,018.4,017.9,000.0,026.7,020.1,11.2,0000.0,0000.56,0000.39,0000.35
2024-02-23 11:27:00,SystemResetWarning,0831.6,5.00,000.00,018.4,017.9,000.0,026.8,020.1,11.2,0000.0,0000.61,0000.41,0000.35
2024-02-23 11:28:00,SystemResetWarning,0831.6,5.00,000.00,018.4,017.9,000.0,026.8,020.1,11.1,0000.0,0000.65,0000.43,0000.36
2024-02-23 11:29:00,SystemResetWarning,0831.6,5.01,000.00,018.4,017.9,000.0,026.8,020.1,11.1,0000.0,0000.69,0000.45,0000.36
2024-02-23 11:30:00,SystemResetWarning,0831.7,5.00,000.00,018.4,017.9,000.0,026.8,020.1,11.1,0000.0,0000.69,0000.46,0000.37
2024-02-23 11:31:00,SystemResetWarning,0831.6,5.00,000.00,018.4,017.9,000.0,026.8,020.1,11.0,0000.0,0000.70,0000.47,0000.37
2024-02-23 11:32:00,SystemResetWarning,0831.6,5.00,000.00,018.4,017.9,000.0,026.8,020.1,11.1,0000.0,0000.69,0000.46,0000.37
2024-02-23 11:33:00,SystemResetWarning,0831.6,4.99,000.00,018.4,017.9,000.0,026.8,020.1,11.0,0000.0,0000.69,0000.46,0000.37
2024-02-23 11:34:00,SystemResetWarning,0831.7,4.99,000.00,018.4,017.9,000.0,026.8,020.1,11.0,0000.0,0000.72,0000.47,0000.37
2024-02-23 11:35:00,SystemResetWarning,0831.6,5.00,000.00,018.4,017.9,000.0,026.8,020.1,11.1,0000.0,0000.71,0000.47,0000.37
2024-02-23 11:36:00,SystemResetWarning,0831.6,5.00,000.00,018.4,017.9,000.0,026.8,020.1,11.2,0000.0,0000.70,0000.46,0000.36
2024-02-23 11:37:00,SystemResetWarning,0831.7,5.01,000.00,018.4,017.9,000.0,026.8,020.1,11.2,0000.0,0000.72,0000.47,0000.37
2024-02-23 11:38:00,SystemResetWarning,0831.7,5.00,000.00,018.4,017.9,000.0,026.8,020.1,11.1,0000.0,0000.71,0000.47,0000.36
2024-02-23 11:39:00,SystemResetWarning,0831.7,5.01,000.00,018.4,017.9,000.0,026.8,020.1,10.9,0000.0,0000.68,0000.45,0000.36
2024-02-23 11:40:00,SystemResetWarning,0831.6,5.00,000.00,018.4,017.9,000.0,026.8,020.2,10.8,0000.0,0000.62,0000.42,0000.34
2024-02-23 11:41:00,SystemResetWarning,0831.6,5.00,000.00,018.4,017.9,000.0,026.8,020.2,10.8,0000.0,0000.62,0000.40,0000.33
2024-02-23 11:42:00,SystemResetWarning,0831.7,5.00,000.00,018.4,017.9,000.0,026.8,020.2,10.8,0000.0,0000.57,0000.38,0000.32
2024-02-23 11:43:00,SystemResetWarning,0831.7,5.00,000.00,018.4,017.9,000.0,026.8,020.2,10.8,0000.0,0000.57,0000.37,0000.32
2024-02-23 11:44:00,SystemResetWarning,0831.8,5.00,000.00,018.4,017.9,000.0,026.8,020.2,10.8,0000.0,0000.56,0000.37,0000.31
2024-02-23 11:45:00,SystemResetWarning,0831.8,4.99,000.00,018.4,017.9,000.0,026.8,020.2,10.8,0000.0,0000.52,0000.35,0000.31
2024-02-23 11:46:00,SystemResetWarning,0832.0,4.99,000.00,018.4,017.9,000.0,026.8,020.2,11.0,0000.0,0000.50,0000.35,0000.31
2024-02-23 11:47:00,SystemResetWarning,0832.2,5.00,000.00,018.4,017.9,000.0,026.8,020.2,10.9,0000.0,0000.55,0000.36,0000.31
2024-02-23 11:48:00,SystemResetWarning,0832.0,5.01,000.00,018.4,017.9,000.0,026.8,020.2,10.9,0000.0,0000.57,0000.36,0000.30
2024-02-23 11:49:00,SystemResetWarning,0832.0,5.01,000.00,018.4,017.9,000.0,026.8,020.2,10.9,0000.0,0000.56,0000.36,0000.30
2024-02-23 11:50:00,SystemResetWarning,0831.7,5.00,000.00,018.4,017.9,000.0,026.8,020.2,10.9,0000.0,0000.57,0000.36,0000.30
2024-02-23 11:51:00,SystemResetWarning,0831.7,5.01,000.00,018.4,017.9,000.0,026.9,020.2,10.8,0000.0,0000.59,0000.37,0000.30
2024-02-23 11:52:00,SystemResetWarning,0832.1,5.00,000.00,018.4,017.9,000.0,026.9,020.2,10.8,0000.0,0000.57,0000.37,0000.30
2024-02-23 11:53:00,SystemResetWarning,0832.1,4.99,000.00,018.4,017.9,000.0,026.9,020.2,10.8,0000.0,0000.59,0000.38,0000.30
2024-02-23 11:54:00,SystemResetWarning,0831.7,5.00,000.00,018.4,017.9,000.0,026.9,020.2,10.8,0000.0,0000.68,0000.42,0000.31
2024-02-23 11:55:00,SystemResetWarning,0832.2,5.00,000.00,018.4,017.9,000.0,026.9,020.2,10.8,0000.0,0000.71,0000.43,0000.31
2024-02-23 11:56:00,SystemResetWarning,0831.8,5.01,000.00,018.4,017.9,000.0,026.9,020.2,10.9,0000.0,0000.71,0000.43,0000.31
2024-02-23 11:57:00,SystemResetWarning,0831.8,5.01,000.00,018.4,017.9,000.0,026.9,020.1,11.0,0000.0,0000.69,0000.42,0000.31
2024-02-23 11:58:00,SystemResetWarning,0831.8,5.00,000.00,018.4,017.9,000.0,026.9,020.2,10.9,0000.0,0000.67,0000.42,0000.31
2024-02-23 11:59:00,SystemResetWarning,0831.8,5.00,000.00,018.4,017.9,000.0,026.9,020.2,10.8,0000.0,0000.65,0000.42,0000.32
